AirNav   Pilot Hours Calculator
 
 880 users online  

3L2 Sky Ranch Airport
Sandy Valley, Nevada, USA

GOING TO SANDY VALLEY?


FAA INFORMATION EFFECTIVE 15 JULY 2021

Location

FAA Identifier: 3L2
Lat/Long: 35-47-34.6000N 115-37-35.1000W
35-47.576667N 115-37.585000W
35.7929444,-115.6264167
(estimated)
Elevation: 2599 ft. / 792.2 m (surveyed)
Variation: 14E (1985)
From city: 2 miles SW of SANDY VALLEY, NV
Time zone: UTC -7 (UTC -8 during Standard Time)
Zip code: 89019

Airport Operations

Airport use: Open to the public
Activation date: 06/1979
Control tower: no
ARTCC: LOS ANGELES CENTER
FSS: RENO FLIGHT SERVICE STATION
NOTAMs facility: RNO (NOTAM-D service available)
Attendance: IREG
Wind indicator: yes
Segmented circle: yes

Airport Communications

CTAF/UNICOM: 123.0

Nearby radio navigation aids

VOR radial/distance  VOR name  Freq  Var
LASr218/28.5LAS VEGAS VORTAC116.9015E
BLDr237/39.0BOULDER CITY VORTAC116.7015E

Airport Services

Parking: hangars and tiedowns

Runway Information

Runway 3/21

Dimensions: 3340 x 45 ft. / 1018 x 14 m
Surface: asphalt, in good condition
Runway edge lights: non-standard
RWY 03/21 RTHL ONLY. RWY EDGES MARKED WITH REFLECTORS.
RUNWAY 3  RUNWAY 21
Traffic pattern: rightleft
Displaced threshold: no180 ft.
DSPLCD THLD MARKED WITH 8 FT WHITE LINE.
Markings: basic, in good conditionbasic, in good condition
Obstructions: none17 ft. road, 200 ft. from runway
+16 FT ROAD, 0-200 FT FROM RWY END, 125 FT R TO OB. +4 FT FENCE, 0-200 FT FROM RWY END, 108 FT R TO OB.

Runway 12/30

Dimensions: 3300 x 105 ft. / 1006 x 32 m
Surface: dirt, in fair condition
Operational restrictions: RY 12/30 THLD NOT MARKED.
RUNWAY 12  RUNWAY 30
Latitude: 35-47.765960N35-47.388083N
Longitude: 115-37.825518W115-37.345095W
Elevation: 2575.0 ft.2575.0 ft.
Traffic pattern: rightleft
Runway heading: 120 magnetic, 134 true300 magnetic, 314 true
Markings: nonenone

Airport Ownership and Management from official FAA records

Ownership: Privately-owned
Owner: SKY RANCH HOMEOWNERS ASSN
838 SARATOGA AVENUE
SANDY VALLEY, NV 89019-8623
Phone 702-723-5018
Manager: STEVE VAN FRANK
838 SARATOGA AVENUE
SANDY VALLEY, NV 89019-8623
Phone 702-420-3559

Airport Operational Statistics

Aircraft based on the field: 86
Single engine airplanes: 72
Multi engine airplanes: 5
Helicopters: 2
Gliders airplanes: 2
Ultralights: 5
    
Aircraft operations: avg 80/week *
77% local general aviation
17% transient general aviation
4% military
1% air taxi
* for 12-month period ending 30 September 2019

Additional Remarks

AVOID NOISE SENSITIVE RESIDENTIAL AREA 1.5 MILES NW OF ARPT.
LOW FLYING MILITARY AIRCRAFT IN AREA.
UNMARKED & UNLIGHTED POWER POLES/LINES NW/SE OF RWY 03/21.
ARPT IS A RESIDENTIAL AIRPARK; AUTO TRAFFIC IS ON & ACROSS RWYS & TWYS.
OCNL LIVESTOCK ON AND INVOF ACFT MOVEMENT AREAS.
RY 03/21 OBSTACLE FREE AREA LIMITED TO 96 FT EITHER SIDE OF RY CNTRLN.
NO LINE OF SIGHT BTWN RY ENDS.
ULTRALIGHT ACTIVITY ON AND IN VICINTY OF AIRPORT.
FOR CD CTC LAS VEGAS APCH AT 725-200-4432.

Instrument Procedures

There are no published instrument procedures at 3L2.

Some nearby airports with instrument procedures:

KHND - Henderson Executive Airport (26 nm NE)
KLAS - Harry Reid International Airport (29 nm NE)
KVGT - North Las Vegas Airport (33 nm NE)
KBVU - Boulder City Municipal Airport (38 nm E)
KLSV - Nellis Air Force Base (39 nm NE)
 
Loc | Ops | Rwys | IFR | FBO | Links
Com | Nav | Svcs | Stats | Notes
Area around 3L2 (Sky Ranch Airport)
 
Road maps at: MapQuest Bing Google
 
Aerial photo
WARNING: Photo may not be current or correct
Aerial photo of 3L2 (Sky Ranch Airport)
Photo by Greg Tarasoff

Do you have a better or more recent aerial photo of Sky Ranch Airport that you would like to share? If so, please send us your photo.

 
Sectional chart

 
Airport distance calculator
Flying to Sky Ranch Airport? Find the distance to fly.

From to 3L2

Sunrise and sunset
Times for 01-Aug-2021
 Local
(UTC-7)
 Zulu
(UTC)
Morning civil twilight05:2312:23
Sunrise05:5112:51
Sunset19:4602:46
Evening civil twilight20:1403:14

Current date and time
Zulu (UTC)  01-Aug-2021 13:02:18
Local (UTC-7)  01-Aug-2021 06:02:18
 
METAR
KHND 
27nm NE 
011256Z 16005KT 10SM CLR 24/19 A3010 RMK AO2 SLP182 T02390189
KLAS 
29nm NE 
011256Z 28003KT 10SM FEW120 SCT180 BKN250 28/17 A3006 RMK AO2 SLP153 CB DSNT SW T02830167
KVGT 
32nm NE 
011253Z AUTO 17004KT 10SM FEW120 29/18 A3005 RMK AO2 SLP166 T02890178 PNO
KBVU 
38nm E 
010935Z AUTO 00000KT 10SM OVC085 28/16 A3004 RMK AO2
KLSV 
39nm NE 
011258Z AUTO 06005KT 10SM CLR 28/16 A3004 RMK AO2 SLP147 T02820158 $
KINS 
47nm N 
011258Z AUTO 23006KT 10SM BKN100 23/18 A3014 RMK AO2 LTG DSNT NW SLP159 T02320176 $
TAF
KHND 
27nm NE 
011122Z 0112/0212 19008KT P6SM FEW100 SCT250 FM012000 30009G17KT P6SM VCTS SCT100CB SCT250 FM020300 VRB05KT P6SM FEW100
KLAS 
29nm NE 
011122Z 0112/0218 VRB05KT P6SM FEW100 SCT250 FM012000 25008G16KT P6SM VCTS SCT100CB FM020300 20007KT P6SM SCT100 FM021200 VRB05KT P6SM FEW100
KVGT 
32nm NE 
011122Z 0112/0212 VRB05KT P6SM FEW100 SCT250 FM012000 27008G16KT P6SM VCTS SCT100CB SCT250 FM020300 33007KT P6SM SCT100
NOTAMs
Click for the latest NOTAMs
NOTAMs are issued by the DoD/FAA and will open in a separate window not controlled by AirNav.

 

 
 

Would you like to see your business listed on this page?

 If your business provides an interesting product or service to pilots, flight crews, aircraft, or users of the Sky Ranch Airport, you should consider listing it here.  To start the listing process, click on the button below
 
Add a business
 

Other Pages about Sky Ranch Airport

Update a link
 
Copyright © AirNav, LLC. All rights reserved. Privacy Policy  Contact